Showing default

FLOCK 4Q 6, 58315

Orbit data source: Space-Track

FLOCK 4Q 6, 58315 is a payload satellite owned by Planet (US) in SSO that was launched on Sat, 11 Nov 2023 UTC via an FALCON 9 launch vehicle from the Air Force Western Test Range (AFWTR). Payload-class satellites include a variety of spacecraft equipped with specific instruments for various scientific and technological missions. These include communications satellites like Starlink; space stations such as the ISS; scientific satellites like the Hubble; Earth observation satellites from companies like Planet Labs, Umbra, and HawkEye 360; GPS; miniature CubeSats for education and research; and military/defense satellites.

Loading next visibility...
Identifier
58315, 2023-174BM
Orbit
SSO
Country
Flag of USUS
Related business
Manufacturer
Planet
Mission
Non-operational Commercial Imaging
Bus & Motor
CUBESAT 3U, Unknown motor
Mass
5.7 kg wet, 5.7 kg dry
Launch date (UTC)
2023-11-11 (2 years ago)
Launch vehicle
FALCON 9
Launch site
Air Force Western Test Range (AFWTR)
Object type
Payload
Rocket body
Debris
Shape & HBR
Box + 2 Pan, 1.0 m
Radar Cross Section
0.072 m², Medium (>0.1 m² and < 1m²)

Expand to show TLE details & history
Last TLE update: 16 hours ago

TLE from 16 hours ago
0 FLOCK 4Q 6
1 58315U 23174BM  25291.23246268  .00244545  00000-0  22292-2 0  9994
2 58315  97.3959  15.1370 0008474 278.9471  81.0830 15.67097215108578
Epoch: 2025-10-18T05:34Z
TLE epoch observation values (Epoch: 2025-10-18T05:34:44.775Z)
Latitude
-0.00005°
Longitude
-95.51599°
Altitude
369.487 km
Speed
7.688 km/s
True Right ascension
01h 00m 32s
True Declination
0° 00' 00"
Sunlit
Object was in full shadow at epoch
Visualization orbit readout
Latitude
Unknown
Longitude
Unknown
Altitude
Unknown
Speed
Unknown
Apparent Right ascension
Unknown
Apparent Declination
Unknown
Sunlit
N/A
Visualization observer readout
Local Sidereal Time
16:11:57
Azimuth
Unknown
Elevation
Unknown
Doppler factor
Unknown
Orbital elements
Apogee altitude
369.83 km
Perigee altitude
358.403 km
Semi-major axis
6,742.254 km
Eccentricity
0.00085
Inclination
97.3959°
RAAN
15.137°
Arg. of periapsis
278.9471°
True anomaly
81.17895°
Mean anomaly
81.083°
Eccentric anomaly
81.13097°
Mean motion
3.92045 °/min
Orbital period
91.83 mins
BSTAR
0.0022292
Loading maneuver chart data...
Computing Atmospheric mass density...
Loading historical data...
Loading historical data...
Loading historical data...
Loading historical data...
Loading historical data...
Loading historical data...
Loading historical data...

Documentation

Showing up to 5 results
|